Home > Weather > Colchester > Past weeks

Flag for United Kingdom Weather for the Past 2 Weeks in Colchester, England, United Kingdom

Now
41 °F

Passing clouds.


Feels Like: 34 °F
Forecast: N/A
Wind: 13 mph from Southwest

Location: Cranfield

Current Time: Feb 9, 2016 at 6:21:56 PM

Latest Report: Feb 9, 2016 at 5:20 PM


Visibility: N/A

Pressure: 29.06 "Hg

Humidity: 70%

Dew point: 32 °F

Location of ColchesterLocation

Historic Weather in Colchester — Graph

°F

Colchester Temperature Yesterday

Maximum temperature yesterday: 48 °F (at 1:20 PM)
Minimum temperature yesterday: 41 °F (at 7:20 AM)
Average temperature yesterday: 45 °F

High & Low Weather Summary for the Past Weeks

 TemperatureHumidityPressure
High61 °F (Jan 30, 10:50 AM)100% (Jan 31, 8:50 AM)30.27 "Hg (Jan 31, 8:50 AM)
Low34 °F (Jan 28, 7:20 AM)39% (Jan 30, 10:50 AM)28.91 "Hg (Feb 8, 8:50 AM)
Average48 °F81%29.72 "Hg
* Reported Jan 25 5:20 PM — Feb 9 5:20 PM, Colchester, Weather by CustomWeather, © 2016

Note: Actual official high and low records may vary slightly from our data, if they occured in-between our weather recording intervals... More about our weather records

Advertising

Colchester Weather History for the Previous 24 Hours

 ConditionsComfort  
Time TempWeatherWind HumidityBarometerVisibility
5:20 PM
Tue, Feb 9
41 °FPassing clouds.13 mph70%29.06 "HgN/A
4:50 PM43 °FPassing clouds.9 mph66%29.06 "HgN/A
3:50 PM43 °FPassing clouds.12 mph66%29.03 "HgN/A
3:20 PM45 °FPassing clouds.16 mph61%29.03 "HgN/A
2:20 PM45 °FPassing clouds.16 mph61%29.03 "HgN/A
1:50 PM45 °FScattered clouds.16 mph61%29.03 "HgN/A
1:20 PM43 °FScattered clouds.17 mph66%29.03 "HgN/A
12:50 PM45 °FPassing clouds.13 mph61%29.03 "HgN/A
12:20 PM43 °FPassing clouds.15 mph76%29.03 "HgN/A
11:50 AM43 °FPassing clouds.10 mph76%29.03 "HgN/A
11:20 AM41 °FPassing clouds.9 mph81%29.06 "HgN/A
10:50 AM41 °FPassing clouds.10 mph81%29.06 "HgN/A
10:20 AM39 °FPassing clouds.10 mph87%29.06 "HgN/A
9:50 AM39 °FSunny.9 mph87%29.06 "Hg10 mi
9:20 AM37 °FSunny.10 mph93%29.09 "Hg10 mi
8:50 AM37 °FSunny.8 mph93%29.09 "Hg10 mi
8:20 AM37 °FSunny.9 mph93%29.09 "Hg10 mi
7:50 AM37 °FSunny.7 mph93%29.09 "Hg10 mi
7:20 AM37 °FClear.12 mph87%29.12 "Hg10 mi
Weather by CustomWeather, © 2016

See weather overviewHow to use our weather pages